sat.trackr.live / text

‹ back to catalog

STARLINK-11576 [DTC]

NORAD 62993 · 2025-031N

PAYLOAD ACTIVE UNKNOWN

§ Identity

Operator
Country
US
Launch date
2025-02-11
Launch site
AFETR
Launch vehicle
Mass (kg)
RCS (m²)

Purposes: comms

External: N2YO · Heavens-Above · Gunter

§ Orbital elements

Epoch: 2026-05-24T18:00:42.494976Z

Period
91.67 min
Inclination
43.0009°
Eccentricity
0.0001261
Mean motion
15.70830824 rev/d
Perigee alt
355.7 km
Apogee alt
357.4 km
Semi-major
6,734.7 km
B*
1.1798e-3
RAAN
263.0901°
Arg perigee
267.9315°
Mean anomaly
92.1408°
Rev number
7,469

§ Raw data

STARLINK-11576 [DTC]1 62993U 25031N   26144.75049184  .00153705  00000+0  11798-2 0  99932 62993  43.0009 263.0901 0001261 267.9315  92.1408 15.70830824 74699

JSON: /api/v1/satellites/62993 · /tle

For live sub-satellite position, see the globe view (requires WebGL).

§ Visibility from observer

Set your observer location to see the next 7 days of passes ≥ 10°. The values pass through the URL so the page stays shareable.

No JS? Fill the form by hand. The geolocation button needs JavaScript.